Location: Edinburgh
(55.9500°N, 3.1600°W)
Time: 12:33:22
(UTC+01:00)

Envisat - Pass Details

Date: 14 October 2017
Orbit: 764 x 766 km, 98.2° (Epoch: 17 October)

Event Time Altitude Azimuth Distance (km) Brightness Sun altitude
Exits shadow 21:59:35 17° 229° (SW) 1,865 5.1 -31.0°
Maximum altitude 22:02:08 25° 270° (W) 1,530 5.0 -31.3°
Drops below altitude 10° 22:06:17 10° 324° (NW) 2,315 6.3 -31.8°
Sets 22:09:01 0° 338° (NNW) 3,247 7.1 -32.1°
